McAllen, TX

3:20 AM CST on December 12, 2017 (GMT -0600)
McAllen Miller International

Weather History for KMFE - November, 2012

Change the Weather History Date:

Tuesday, November 6, 2012

  Actual Average Record
Temperature  
Mean Temperature 78 °F 72 °F  
Max Temperature 89 °F 83 °F 93 °F (1996)
Min Temperature 66 °F 62 °F 43 °F (1970)
Degree Days  
Heating Degree Days 0 1  
Month to date heating degree days 0 6  
Since 1 July heating degree days 5 11  
Cooling Degree Days 13 8  
Month to date cooling degree days 77 52  
Year to date cooling degree days 4956 4234  
Growing Degree Days 27 (Base 50)    
Moisture  
Dew Point 62 °F    
Average Humidity 65    
Maximum Humidity 93    
Minimum Humidity 37    
Precipitation  
Precipitation 0.00 in 0.04 in 0.79 in (1983)
Month to date precipitation T 0.25  
Year to date precipitation 16.63 20.37  
Sea Level Pressure  
Sea Level Pressure 30.06 in    
Wind  
Wind Speed 7 mph (East)    
Max Wind Speed 18 mph    
Max Gust Speed 22 mph    
Visibility 9 miles    
Events      
T = Trace of Precipitation, MM = Missing Value Source: NWS Daily Summary

Daily Weather History Graph

Daily Weather History Graph

Search for Another Location

Airport or City:

Trip Planner

Search our weather history database for the weather conditions in past years. The results will help you decide how hot, cold, wet, or windy it might be!

Date:

Astronomy

Nov. 06, 2012 Rise Set
Actual Time 6:45 AM CST 5:47 PM CST
Civil Twilight 6:21 AM CST 6:11 PM CST
Nautical Twilight 5:53 AM CST 6:38 PM CST
Astronomical Twilight 5:26 AM CST 7:06 PM CST
Moon No Moon Rise 12:43 PM CST (11/6)
Length of Visible Light 11h 49m
Length of Day
11h 01m
Waning Gibbous, 53% of the Moon is Illuminated
Nov 6
Waning Gibbous
Nov 6
Last Quarter
Nov 13
New
Nov 20
First Quarter
Nov 28
Full

Hourly Weather History & Observations

Time (CST) Temp. Heat Index Dew Point Humidity Pressure Visibility Wind Dir Wind Speed Gust Speed Precip Events Conditions
12:53 AM 73.0 °F - 69.1 °F 87% 30.00 in 10.0 mi SSE 6.9 mph - N/A   Clear
1:53 AM 73.0 °F - 68.0 °F 84% 29.99 in 10.0 mi South 5.8 mph - N/A   Clear
2:53 AM 71.1 °F - 66.9 °F 87% 29.98 in 10.0 mi Calm Calm - N/A   Clear
3:53 AM 69.1 °F - 66.0 °F 90% 29.99 in 10.0 mi Calm Calm - N/A   Clear
4:53 AM 68.0 °F - 64.9 °F 90% 29.99 in 8.0 mi Calm Calm - N/A   Clear
5:47 AM 66.2 °F - 64.4 °F 94% 30.01 in 1.8 mi Calm Calm - N/A   Clear
5:53 AM 66.2 °F - 64.4 °F 94% 30.01 in 2.5 mi Calm Calm - N/A   Clear
6:00 AM 66.2 °F - 64.4 °F 94% 30.01 in 10.0 mi Calm Calm - N/A   Clear
6:53 AM 70.0 °F - 66.0 °F 87% 30.05 in 10.0 mi NNE 9.2 mph - N/A   Clear
7:53 AM 72.0 °F - 66.9 °F 84% 30.09 in 10.0 mi NE 10.4 mph 19.6 mph N/A   Clear
8:53 AM 75.9 °F - 68.0 °F 76% 30.11 in 10.0 mi East 11.5 mph - N/A   Clear
9:53 AM 80.1 °F 82.1 °F 66.0 °F 62% 30.11 in 10.0 mi East 6.9 mph - N/A   Clear
10:53 AM 82.9 °F 84.6 °F 64.9 °F 54% 30.10 in 10.0 mi ENE 8.1 mph - N/A   Clear
11:53 AM 86.0 °F 87.3 °F 64.0 °F 48% 30.09 in 10.0 mi East 11.5 mph - N/A   Clear
12:53 PM 87.1 °F 87.5 °F 62.1 °F 43% 30.06 in 10.0 mi Variable 3.5 mph - N/A   Clear
1:53 PM 88.0 °F 88.7 °F 63.0 °F 43% 30.04 in 10.0 mi ENE 8.1 mph 16.1 mph N/A   Clear
2:53 PM 87.1 °F 87.0 °F 61.0 °F 41% 30.04 in 10.0 mi East 11.5 mph - N/A   Mostly Cloudy
3:53 PM 84.9 °F 84.4 °F 59.0 °F 41% 30.04 in 10.0 mi East 13.8 mph 19.6 mph N/A   Clear
4:53 PM 82.9 °F 81.8 °F 53.1 °F 36% 30.04 in 10.0 mi ENE 13.8 mph - N/A   Clear
5:53 PM 80.1 °F 80.0 °F 54.0 °F 40% 30.07 in 10.0 mi East 11.5 mph - N/A   Clear
6:53 PM 77.0 °F - 54.0 °F 45% 30.09 in 10.0 mi East 10.4 mph - N/A   Clear
7:53 PM 73.9 °F - 55.0 °F 52% 30.11 in 10.0 mi East 6.9 mph - N/A   Clear
8:53 PM 71.1 °F - 55.9 °F 59% 30.12 in 10.0 mi SE 3.5 mph - N/A   Clear
9:53 PM 70.0 °F - 55.9 °F 61% 30.12 in 10.0 mi ESE 3.5 mph - N/A   Clear
10:53 PM 66.9 °F - 57.9 °F 73% 30.13 in 10.0 mi Calm Calm - N/A   Clear
11:53 PM 66.9 °F - 57.0 °F 70% 30.12 in 10.0 mi SE 3.5 mph - N/A   Clear